SAS6632 EKCH-KBOS

Flight info

Callsign SAS6632
Flight time N/A
Altitude 34000
Route ODN DCT PETIL DCT SURAT DCT ZOFAT DCT MOLAK DCT NEBIN/M077F340 NATB BUDAR/N0442F340 N436B ALLEX DCT AJJAY OOSHN5
Aircraft A21N/M-SDE2E3FGHIRWXY/LB1

Departure

Time 2026-05-01 09:17
Airport Copenhagen Kastrup Airport (EKCH)

Arrival

Time N/A
Airport Boston Logan International Airport (KBOS)
Time Latitude Longitude Altitude Speed Heading
2026-05-01 08:41 55.62641 12.65064 26 ft 0 kts 285°
2026-05-01 09:03 55.62637 12.65093 30 ft 4 kts 278°
2026-05-01 09:03 55.62636 12.65140 29 ft 4 kts 262°
2026-05-01 09:03 55.62641 12.65179 27 ft 1 kts 253°
2026-05-01 09:07 55.62634 12.65166 29 ft 2 kts 214°
2026-05-01 09:08 55.62612 12.65161 28 ft 4 kts 180°
2026-05-01 09:08 55.62581 12.65168 24 ft 5 kts 172°
2026-05-01 09:08 55.62541 12.65177 24 ft 6 kts 172°
2026-05-01 09:08 55.62491 12.65185 27 ft 8 kts 178°
2026-05-01 09:09 55.62434 12.65189 26 ft 9 kts 178°
2026-05-01 09:09 55.62369 12.65193 27 ft 10 kts 178°
2026-05-01 09:09 55.62297 12.65183 27 ft 11 kts 208°
2026-05-01 09:09 55.62282 12.65060 28 ft 12 kts 293°
2026-05-01 09:10 55.62327 12.64932 30 ft 13 kts 304°
2026-05-01 09:10 55.62347 12.64792 29 ft 13 kts 246°
2026-05-01 09:10 55.62307 12.64644 26 ft 14 kts 245°
2026-05-01 09:10 55.62290 12.64575 25 ft 0 kts 246°
2026-05-01 09:12 55.62289 12.64572 25 ft 1 kts 246°
2026-05-01 09:13 55.62282 12.64544 26 ft 4 kts 246°
2026-05-01 09:13 55.62269 12.64489 26 ft 6 kts 246°
2026-05-01 09:13 55.62250 12.64417 26 ft 7 kts 242°
2026-05-01 09:13 55.62211 12.64356 22 ft 8 kts 209°
2026-05-01 09:14 55.62155 12.64307 22 ft 10 kts 204°
2026-05-01 09:14 55.62087 12.64253 24 ft 11 kts 204°
2026-05-01 09:14 55.62013 12.64194 25 ft 12 kts 204°
2026-05-01 09:14 55.61934 12.64128 26 ft 13 kts 206°
2026-05-01 09:15 55.61847 12.64071 26 ft 14 kts 183°
2026-05-01 09:15 55.61752 12.64081 27 ft 14 kts 176°
2026-05-01 09:15 55.61652 12.64087 26 ft 15 kts 191°
2026-05-01 09:15 55.61570 12.63983 23 ft 15 kts 222°
2026-05-01 09:16 55.61399 12.63716 21 ft 68 kts 221°
2026-05-01 09:16 55.60855 12.62883 23 ft 136 kts 220°
2026-05-01 09:16 55.60000 12.61562 65 ft 182 kts 220°
2026-05-01 09:17 55.58138 12.58475 1447 ft 188 kts 226°
2026-05-01 09:17 55.57191 12.56870 2239 ft 189 kts 227°
2026-05-01 09:17 55.55234 12.53441 3086 ft 228 kts 231°
2026-05-01 09:18 55.54557 12.50766 3191 ft 251 kts 266°
2026-05-01 09:18 55.54707 12.44467 4626 ft 261 kts 274°
2026-05-01 09:19 55.54918 12.38007 6154 ft 267 kts 272°
2026-05-01 09:19 55.55011 12.34748 6839 ft 272 kts 272°
2026-05-01 09:19 55.55105 12.31391 7519 ft 275 kts 271°
2026-05-01 09:20 55.55574 12.24559 8950 ft 283 kts 276°
2026-05-01 09:20 55.56136 12.17543 10326 ft 296 kts 276°
2026-05-01 09:21 55.56725 12.09921 10947 ft 332 kts 276°
2026-05-01 09:21 55.57040 12.05829 11521 ft 339 kts 276°
2026-05-01 09:21 55.57672 11.97489 12909 ft 345 kts 276°
2026-05-01 09:22 55.58306 11.89047 14275 ft 352 kts 276°
2026-05-01 09:22 55.58944 11.80384 15502 ft 357 kts 277°
2026-05-01 09:23 55.59270 11.75988 16119 ft 360 kts 276°
2026-05-01 09:23 55.59917 11.67167 17315 ft 366 kts 276°
2026-05-01 09:24 55.60563 11.58152 18508 ft 372 kts 276°
2026-05-01 09:24 55.60892 11.53599 19036 ft 375 kts 277°
2026-05-01 09:24 55.61554 11.44358 20017 ft 381 kts 276°
2026-05-01 09:25 55.62210 11.34960 20974 ft 387 kts 276°
2026-05-01 09:25 55.62870 11.25482 21884 ft 393 kts 276°
2026-05-01 09:26 55.63200 11.20658 22355 ft 396 kts 276°
2026-05-01 09:26 55.63866 11.10925 23329 ft 400 kts 276°
2026-05-01 09:26 55.64200 11.06012 23781 ft 403 kts 276°
2026-05-01 09:27 55.64864 10.96136 24556 ft 408 kts 276°
2026-05-01 09:27 55.65195 10.91118 24934 ft 410 kts 276°
2026-05-01 09:27 55.65527 10.86098 25311 ft 412 kts 276°
2026-05-01 09:28 55.65860 10.81032 25678 ft 414 kts 276°
2026-05-01 09:28 55.66193 10.75934 26038 ft 416 kts 276°
2026-05-01 09:28 55.66524 10.70811 26380 ft 419 kts 276°
2026-05-01 09:28 55.66847 10.65746 26731 ft 421 kts 276°
2026-05-01 09:29 55.67502 10.55387 27409 ft 424 kts 276°
2026-05-01 09:29 55.67828 10.50167 27734 ft 426 kts 276°
2026-05-01 09:30 55.68464 10.39692 28349 ft 430 kts 276°
2026-05-01 09:30 55.68790 10.34400 28644 ft 432 kts 276°
2026-05-01 09:30 55.69440 10.23796 29231 ft 436 kts 276°
2026-05-01 09:31 55.69767 10.18429 29516 ft 438 kts 276°
2026-05-01 09:31 55.70089 10.13023 29789 ft 440 kts 276°
2026-05-01 09:31 55.70730 10.02187 30385 ft 443 kts 276°
2026-05-01 09:32 55.71046 9.96795 30627 ft 445 kts 276°
2026-05-01 09:32 55.71678 9.85825 31078 ft 448 kts 276°
2026-05-01 09:32 55.71994 9.80294 31303 ft 450 kts 276°
2026-05-01 09:33 55.72310 9.74766 31535 ft 451 kts 276°
2026-05-01 09:33 55.72620 9.69205 31735 ft 453 kts 275°
2026-05-01 09:33 55.73233 9.58099 32193 ft 454 kts 275°
2026-05-01 09:34 55.73538 9.52520 32487 ft 453 kts 275°
2026-05-01 09:34 55.73836 9.46956 32782 ft 451 kts 275°
2026-05-01 09:34 55.74439 9.35867 33266 ft 451 kts 276°
2026-05-01 09:35 55.74728 9.30396 33508 ft 451 kts 275°
2026-05-01 09:35 55.75313 9.19288 33964 ft 450 kts 276°
2026-05-01 09:35 55.75601 9.13756 34162 ft 449 kts 276°
2026-05-01 09:36 55.75887 9.08218 34327 ft 450 kts 276°
2026-05-01 09:36 55.76165 9.02751 34476 ft 450 kts 275°
2026-05-01 09:36 55.76443 8.97199 34504 ft 448 kts 275°
2026-05-01 09:37 55.76980 8.86202 34465 ft 446 kts 275°
2026-05-01 09:37 55.77775 8.69733 34450 ft 446 kts 275°
2026-05-01 09:38 55.78552 8.53287 34443 ft 446 kts 275°
2026-05-01 09:39 55.79306 8.36835 34441 ft 446 kts 275°
2026-05-01 09:39 55.79789 8.25833 34438 ft 446 kts 275°